TimePDT,TemperatureF,Dew PointF,Humidity,Sea Level PressureIn,VisibilityMPH,Wind Direction,Wind SpeedMPH,Gust SpeedMPH,PrecipitationIn,Events,Conditions,WindDirDegrees,DateUTC
12:58 AM,52.9,18.1,26,29.97,10.0,ENE,5.8,-,N/A,,Clear,60,2013-10-20 07:58:00
1:58 AM,53.6,18.9,26,29.96,10.0,NNE,8.1,-,N/A,,Clear,30,2013-10-20 08:58:00
2:58 AM,55.2,19.9,25,29.95,10.0,WNW,2.3,-,N/A,,Clear,300,2013-10-20 09:58:00
3:58 AM,50.9,18.0,27,29.94,10.0,NE,4.6,-,N/A,,Clear,40,2013-10-20 10:58:00
4:58 AM,51.8,18.3,27,29.94,10.0,North,6.9,-,N/A,,Clear,10,2013-10-20 11:58:00
5:58 AM,48.9,19.0,31,29.96,10.0,WNW,3.5,-,N/A,,Clear,290,2013-10-20 12:58:00
6:58 AM,46.9,17.4,31,29.98,10.0,ENE,4.6,-,N/A,,Clear,60,2013-10-20 13:58:00
7:58 AM,50.2,18.5,29,29.99,10.0,NE,4.6,-,N/A,,Clear,50,2013-10-20 14:58:00
8:58 AM,58.5,20.8,23,29.99,10.0,Calm,Calm,-,N/A,,Clear,0,2013-10-20 15:58:00
9:58 AM,62.6,21.2,20,29.99,10.0,SSW,2.3,-,N/A,,Clear,210,2013-10-20 16:58:00
10:58 AM,67.6,21.7,18,29.97,10.0,Calm,Calm,-,N/A,,Clear,0,2013-10-20 17:58:00
11:58 AM,72.3,20.8,14,29.93,10.0,NNE,1.2,-,N/A,,Clear,20,2013-10-20 18:58:00
12:58 PM,74.8,20.1,13,29.91,10.0,Variable,2.3,-,N/A,,Clear,0,2013-10-20 19:58:00
1:58 PM,77.4,19.4,11,29.86,10.0,West,2.3,-,N/A,,Clear,270,2013-10-20 20:58:00
2:58 PM,80.8,19.8,10,29.85,10.0,SW,4.6,-,N/A,,Clear,220,2013-10-20 21:58:00
3:58 PM,81.5,17.4,9,29.84,10.0,Calm,Calm,-,N/A,,Clear,0,2013-10-20 22:58:00
4:58 PM,80.8,17.2,9,29.83,10.0,North,2.3,-,N/A,,Clear,360,2013-10-20 23:58:00
5:58 PM,77.9,21.9,12,29.83,10.0,NE,3.5,-,N/A,,Clear,50,2013-10-21 00:58:00
6:58 PM,71.4,19.9,14,29.85,10.0,NE,4.6,-,N/A,,Clear,40,2013-10-21 01:58:00
7:58 PM,66.4,19.2,16,29.86,10.0,North,5.8,-,N/A,,Clear,360,2013-10-21 02:58:00
8:58 PM,65.8,20.3,18,29.86,10.0,NW,3.5,-,N/A,,Clear,310,2013-10-21 03:58:00
9:58 PM,60.4,18.3,20,29.88,10.0,Calm,Calm,-,N/A,,Clear,0,2013-10-21 04:58:00
10:58 PM,59.0,18.1,20,29.89,10.0,NE,1.2,-,N/A,,Clear,40,2013-10-21 05:58:00
11:58 PM,61.5,19.2,20,29.89,10.0,East,9.2,-,N/A,,Clear,80,2013-10-21 06:58:00